When you browse on this site, cookies collect data to enhance your experience and personalize the content and advertising you see.
Visit our Privacy Policy to learn more. By continuing to use the site, you agree to this use of cookies and data.
  • In Sweden
  • List of Countries
  • For 7 days
  • Water Temperature
  • Satellite Maps
  • Weather Map
  • Weather Widgets
  • user-avatar
    Login

    Hourly Weather Boyalık

    Today, 18 November, Sunday

    Time Temperature Precipitation Wind Pressure Humidity
    00:00 +8°C° 0.1 mm 7 mps 758 mmHg 84%
    01:00 +8°C° 0.1 mm 7 mps 757 mmHg 84%
    02:00 +9°C° 0 mm 7 mps 757 mmHg 83%
    03:00 +9°C° 0.1 mm 7 mps 757 mmHg 82%
    04:00 +9°C° 0.1 mm 7 mps 757 mmHg 82%
    05:00 +9°C° 0.1 mm 7 mps 757 mmHg 82%
    06:00 +9°C° 0.1 mm 7 mps 756 mmHg 82%
    07:00 +9°C° 0.1 mm 8 mps 756 mmHg 82%
    08:00 +9°C° 0.1 mm 8 mps 756 mmHg 81%
    09:00 +10°C° 0.1 mm 8 mps 756 mmHg 79%
    10:00 +10°C° 0.1 mm 8 mps 755 mmHg 77%
    11:00 +11°C° 0.1 mm 8 mps 755 mmHg 75%
    12:00 +11°C° 0.2 mm 7 mps 754 mmHg 75%
    13:00 +11°C° 0.2 mm 7 mps 754 mmHg 75%
    14:00 +11°C° 0.2 mm 7 mps 753 mmHg 75%
    15:00 +11°C° 0.4 mm 7 mps 753 mmHg 77%
    16:00 +10°C° 0.4 mm 8 mps 752 mmHg 78%
    17:00 +10°C° 0.4 mm 8 mps 752 mmHg 80%
    18:00 +10°C° 0.9 mm 8 mps 751 mmHg 82%
    19:00 +10°C° 0.9 mm 8 mps 750 mmHg 84%
    20:00 +10°C° 0.9 mm 8 mps 750 mmHg 85%
    21:00 +10°C° 1 mm 7 mps 750 mmHg 87%
    22:00 +10°C° 1 mm 6 mps 749 mmHg 88%
    23:00 +10°C° 1 mm 5 mps 749 mmHg 90%

    Tomorrow, 19 November, Monday

    Time Temperature Precipitation Wind Pressure Humidity
    00:00 +10°C° 0.4 mm 5 mps 748 mmHg 90%
    01:00 +10°C° 0.4 mm 5 mps 748 mmHg 90%
    02:00 +10°C° 0.4 mm 5 mps 747 mmHg 89%
    03:00 +12°C° 0.1 mm 5 mps 747 mmHg 88%
    04:00 +11°C° 0.1 mm 6 mps 747 mmHg 87%
    05:00 +13°C° 0.1 mm 6 mps 746 mmHg 86%
    06:00 +12°C° 0 mm 7 mps 746 mmHg 83%
    07:00 +14°C° 0 mm 7 mps 746 mmHg 81%
    08:00 +13°C° 0 mm 8 mps 746 mmHg 78%
    09:00 +13°C° 0.2 mm 8 mps 747 mmHg 78%
    10:00 +15°C° 0.2 mm 7 mps 747 mmHg 77%
    11:00 +15°C° 0.2 mm 7 mps 748 mmHg 77%
    12:00 +15°C° 0.1 mm 7 mps 748 mmHg 77%
    13:00 +15°C° 0.1 mm 6 mps 748 mmHg 78%
    14:00 +15°C° 0.1 mm 6 mps 748 mmHg 79%
    15:00 +14°C° 0.3 mm 5 mps 749 mmHg 80%
    16:00 +14°C° 0.3 mm 4 mps 749 mmHg 81%
    17:00 +13°C° 0.3 mm 4 mps 750 mmHg 82%
    18:00 +13°C° 0.4 mm 4 mps 750 mmHg 85%
    19:00 +12°C° 0.4 mm 4 mps 751 mmHg 87%
    20:00 +10°C° 0.4 mm 5 mps 751 mmHg 89%
    21:00 +10°C° 0.1 mm 5 mps 752 mmHg 88%
    22:00 +9°C° 0.1 mm 5 mps 753 mmHg 86%
    23:00 +9°C° 0.1 mm 6 mps 754 mmHg 85%

    Day after tomorrow, 20 November, Tuesday

    Time Temperature Precipitation Wind Pressure Humidity
    00:00 +9°C° 0 mm 6 mps 754 mmHg 84%
    01:00 +8°C° 0 mm 6 mps 754 mmHg 83%
    02:00 +8°C° 0 mm 6 mps 754 mmHg 83%
    03:00 +8°C° 0 mm 6 mps 755 mmHg 83%
    04:00 +8°C° 0 mm 6 mps 755 mmHg 83%
    05:00 +8°C° 0 mm 6 mps 755 mmHg 83%
    06:00 +8°C° 0 mm 5 mps 755 mmHg 84%
    07:00 +8°C° 0 mm 5 mps 755 mmHg 84%
    08:00 +8°C° 0 mm 5 mps 756 mmHg 85%
    09:00 +9°C° 0 mm 5 mps 756 mmHg 84%
    10:00 +10°C° 0 mm 5 mps 756 mmHg 83%
    11:00 +10°C° 0 mm 5 mps 756 mmHg 82%
    12:00 +12°C° 0 mm 5 mps 755 mmHg 82%
    13:00 +12°C° 0 mm 5 mps 755 mmHg 82%
    14:00 +12°C° 0 mm 5 mps 755 mmHg 83%
    15:00 +12°C° 0 mm 4 mps 754 mmHg 85%
    16:00 +12°C° 0 mm 4 mps 754 mmHg 88%
    17:00 +11°C° 0 mm 4 mps 754 mmHg 91%
    18:00 +11°C° 0 mm 4 mps 754 mmHg 92%
    19:00 +12°C° 0 mm 4 mps 754 mmHg 92%
    20:00 +12°C° 0 mm 4 mps 754 mmHg 93%
    21:00 +12°C° 0.1 mm 4 mps 754 mmHg 93%
    22:00 +12°C° 0.1 mm 4 mps 753 mmHg 94%
    23:00 +12°C° 0.1 mm 3 mps 753 mmHg 94%

    21 November, Wednesday

    Time Temperature Precipitation Wind Pressure Humidity
    00:00 +12°C° 0.1 mm 3 mps 753 mmHg 94%
    01:00 +12°C° 0.1 mm 3 mps 753 mmHg 93%
    02:00 +12°C° 0.1 mm 3 mps 752 mmHg 93%
    03:00 +13°C° 0 mm 2 mps 752 mmHg 91%
    04:00 +14°C° 0 mm 2 mps 752 mmHg 90%
    05:00 +14°C° 0 mm 2 mps 751 mmHg 89%
    06:00 +14°C° 0 mm 2 mps 751 mmHg 89%
    07:00 +13°C° 0 mm 3 mps 751 mmHg 88%
    08:00 +13°C° 0 mm 3 mps 751 mmHg 87%
    09:00 +14°C° 0 mm 3 mps 751 mmHg 84%
    10:00 +16°C° 0 mm 3 mps 751 mmHg 81%
    11:00 +16°C° 0 mm 3 mps 750 mmHg 78%
    12:00 +17°C° 0.1 mm 3 mps 750 mmHg 76%
    13:00 +17°C° 0.1 mm 3 mps 749 mmHg 74%
    14:00 +17°C° 0.1 mm 3 mps 749 mmHg 72%
    15:00 +17°C° 0.5 mm 3 mps 749 mmHg 77%
    16:00 +16°C° 0.5 mm 3 mps 748 mmHg 82%
    17:00 +14°C° 0.5 mm 4 mps 748 mmHg 86%
    18:00 +14°C° 0.7 mm 4 mps 748 mmHg 86%
    19:00 +14°C° 0.7 mm 4 mps 748 mmHg 85%
    20:00 +14°C° 0.7 mm 5 mps 748 mmHg 84%
    21:00 +14°C° 0.1 mm 5 mps 748 mmHg 85%
    22:00 +14°C° 0.1 mm 5 mps 748 mmHg 86%
    23:00 +14°C° 0.1 mm 5 mps 748 mmHg 86%

    22 November, Thursday

    Time Temperature Precipitation Wind Pressure Humidity
    00:00 +13°C° 0 mm 5 mps 748 mmHg 87%
    01:00 +13°C° 0 mm 5 mps 748 mmHg 88%
    02:00 +13°C° 0 mm 5 mps 748 mmHg 89%
    03:00 +13°C° 0 mm 4 mps 748 mmHg 90%
    04:00 +12°C° 0 mm 4 mps 748 mmHg 90%
    05:00 +12°C° 0 mm 4 mps 748 mmHg 91%
    06:00 +12°C° 0.1 mm 4 mps 748 mmHg 90%
    07:00 +12°C° 0.1 mm 4 mps 748 mmHg 89%
    08:00 +12°C° 0.1 mm 4 mps 749 mmHg 88%
    09:00 +13°C° 0.1 mm 4 mps 749 mmHg 83%
    10:00 +14°C° 0.1 mm 5 mps 749 mmHg 79%
    11:00 +14°C° 0.1 mm 5 mps 749 mmHg 74%
    12:00 +15°C° 0 mm 5 mps 749 mmHg 73%
    13:00 +15°C° 0 mm 5 mps 749 mmHg 72%
    14:00 +15°C° 0 mm 4 mps 749 mmHg 71%
    15:00 +14°C° 0 mm 4 mps 750 mmHg 73%
    16:00 +13°C° 0 mm 4 mps 750 mmHg 75%
    17:00 +12°C° 0 mm 4 mps 750 mmHg 78%
    18:00 +11°C° 0.1 mm 4 mps 751 mmHg 81%
    19:00 +11°C° 0.1 mm 4 mps 751 mmHg 85%
    20:00 +11°C° 0.1 mm 4 mps 752 mmHg 88%
    21:00 +11°C° 0.1 mm 3 mps 752 mmHg 89%
    22:00 +11°C° 0.1 mm 3 mps 752 mmHg 90%
    23:00 +12°C° 0.1 mm 3 mps 753 mmHg 91%

    23 November, Friday

    Time Temperature Precipitation Wind Pressure Humidity
    00:00 +11°C° 0.3 mm 4 mps 753 mmHg 90%
    01:00 +10°C° 0.3 mm 5 mps 753 mmHg 90%
    02:00 +10°C° 0.3 mm 6 mps 753 mmHg 89%
    03:00 +9°C° 0.9 mm 6 mps 754 mmHg 89%
    04:00 +9°C° 0.9 mm 7 mps 754 mmHg 89%
    05:00 +9°C° 0.9 mm 8 mps 755 mmHg 88%
    06:00 +8°C° 1 mm 9 mps 755 mmHg 88%
    07:00 +8°C° 1 mm 9 mps 756 mmHg 87%
    08:00 +8°C° 1 mm 10 mps 756 mmHg 86%
    09:00 +8°C° 0.4 mm 10 mps 757 mmHg 84%
    10:00 +8°C° 0.4 mm 10 mps 757 mmHg 82%
    11:00 +8°C° 0.4 mm 10 mps 757 mmHg 80%
    12:00 +8°C° 0.1 mm 10 mps 757 mmHg 79%
    13:00 +8°C° 0.1 mm 10 mps 757 mmHg 79%
    14:00 +8°C° 0.1 mm 9 mps 757 mmHg 78%
    15:00 +7°C° 0 mm 9 mps 758 mmHg 78%
    16:00 +7°C° 0 mm 8 mps 758 mmHg 79%
    17:00 +7°C° 0 mm 8 mps 758 mmHg 79%
    18:00 +7°C° 0 mm 8 mps 758 mmHg 78%
    19:00 +6°C° 0 mm 7 mps 758 mmHg 78%
    20:00 +6°C° 0 mm 7 mps 758 mmHg 78%
    21:00 +6°C° 0 mm 7 mps 758 mmHg 78%
    22:00 +7°C° 0 mm 6 mps 758 mmHg 78%
    23:00 +7°C° 0 mm 6 mps 758 mmHg 79%
    Show more